Regional Weather Roundup
Issued by NWS

Home | Current Version | Previous Version | Text Only | Print | Product List | Glossary Off
Versions: 1 2 3 4 5 6 7 8 9 10 11 12 13 14 15 16 17 18 19 20 21 22 23 24 25 26 27 28 29 30 31 32 33 34 35 36 37 38 39 40 41 42 43 44 45 46 47 48 49 50

000
ASUS43 KMPX 281001
RWRMN
WEATHER ROUNDUP FOR MINNESOTA
NATIONAL WEATHER SERVICE TWIN CITIES/CHANHASSEN MN
500 AM CDT THU AUG 28 2014


NOTE: "FAIR" INDICATES FEW OR NO CLOUDS BELOW 12,000 FEET WITH NO
SIGNIFICANT WEATHER AND/OR OBSTRUCTIONS TO VISIBILITY. N/A MEANS
CURRENT SKY AND/OR WEATHER CONDITIONS ARE NOT AVAILABLE.

MNZ060>063-068>070-281100-
   Twin Cities Metro

CITY           SKY/WX    TMP DP  RH WIND       PRES   REMARKS
TWIN CITIES    PTCLDY    62  56  80 E10       30.09F
ST PAUL        CLEAR     62  56  80 SE6       30.10F
CRYSTAL        CLEAR     63  55  75 SE6       30.07F
BLAINE         CLEAR     63  57  82 E7        30.08F
LAKEVILLE      CLEAR     55  54  94 CALM      30.09F
EDEN PRAIRIE   CLEAR     62  58  86 E7        30.07F
SOUTH ST PAUL  CLEAR     62  55  77 CALM      30.10S
LAKE ELMO      FAIR      59  54  82 SE7       30.10F
$$
MNZ001>005-007-008-013>017-022>024-027-028-281100-
   Northwest Minnesota

CITY           SKY/WX    TMP DP  RH WIND       PRES   REMARKS
BEMIDJI        PTCLDY    55  54  97 CALM      30.07S
HALLOCK        CLEAR     57  55  94 SE9       29.99F
ROSEAU         CLEAR     54  48  82 S8        30.04S
WARROAD        CLEAR     54  48  82 S5        30.05S
THIEF RVR FALL MOCLDY    57  55  94 SE7       30.04S
CROOKSTON      PTCLDY    61  57  88 SE8       30.02F
FOSSTON        PTCLDY    57  54  88 SE3       30.06S
DETROIT LAKES  CLOUDY    61  57  88 SE6       30.06S
MOORHEAD       MOCLDY    64  64 100 S8        30.02F
PARK RAPIDS    CLEAR     56  55  97 SE6       30.07F
MAHNOMEN       PTSUNNY   59  57  92 SE7       30.04S
$$
MNZ006-009>011-018-025>026-281100-
   North Central Minnesota

CITY           SKY/WX    TMP DP  RH WIND       PRES   REMARKS
BAUDETTE       CLEAR     49  47  93 CALM      30.06S
FLAG ISLAND    PTCLDY    63  57  82 S5        30.03S
INTL FALLS     CLEAR     45  45 100 SE5       30.09S
WASKISH        CLEAR     54  52  94 CALM      30.08S
BIG FORK       FOG       45  43  93 CALM      30.11S VSB 1/4
LONGVILLE      CLOUDY    54  54 100 CALM      30.08F FOG
GRAND RAPIDS   CLEAR     48  46  93 CALM      30.11S
CRANE LAKE     CLEAR     39  39 100 CALM      30.13S
ORR            CLEAR     48  46  93 CALM      30.09S
COOK           CLEAR     41  41 100 CALM      30.12S
WALKER         PTSUNNY   57  56  94 CALM      30.08F
$$
MNZ012-019>021-037-281100-
   Northeast Minnesota

CITY           SKY/WX    TMP DP  RH WIND       PRES   REMARKS
DULUTH         PTCLDY    54  51  90 SE3       30.12F
ELY            CLEAR     43  41  93 CALM      30.12S
HIBBING        FOG       45  43  93 CALM      30.12F VSB 1/4
EVELETH        FOG       45  45 100 CALM      30.13S VSB<1/4
DULUTH HARBOR  CLEAR     55  54  94 CALM      30.12F
TWO HARBORS    CLEAR     46  43  87 CALM      30.11S
SILVER BAY     CLEAR     45  45 100 CALM      30.12S
GRAND MARAIS     N/A     52  50  93 CALM      30.13S
G MARAIS ARPRT PTCLDY    46  43  87 CALM      30.15S
$$
MNZ029>031-032-039>041-046>048-054>057-064-281100-
   West Central Minnesota

CITY           SKY/WX    TMP DP  RH WIND       PRES   REMARKS
FERGUS FALLS   CLOUDY    64  57  77 S10       30.03F
WHEATON        PTCLDY    57  55  94 SE6       30.03F
MORRIS         MOCLDY    63  59  88 SE7       30.03F
ALEXANDRIA     MOCLDY    61  57  87 SE8       30.07F
ELBOW LAKE     MOCLDY    62  59  90 SE10      30.03F
WADENA         CLOUDY    57  55  94 SE3       30.06F
GLENWOOD       PTCLDY    61  57  88 E6        30.07F
APPLETON       CLOUDY    63  59  88 SE6       30.03F
BENSON         MOCLDY    63  59  88 S7        30.04F
ORTONVILLE     CLOUDY    63  57  82 SE6       30.02F
MADISON        CLOUDY    66  61  82 SE6       30.02F
WILLMAR        MOCLDY    63  57  82 SE7       30.07F
$$
MNZ033>034-036-042>043-049>051-058-059-281100-
   Central Minnesota

CITY           SKY/WX    TMP DP  RH WIND       PRES   REMARKS
ST CLOUD       MOCLDY    63  55  75 SE6       30.08F
SAUK CENTRE    CLOUDY    60  57  90 SE6       30.07F FOG
PAYNESVILLE    MOCLDY    59  57  91 NE5       30.08S
AITKIN         CLOUDY    55  50  82 CALM      30.08F
PINE RIVER     CLOUDY    57  57 100 E3        30.11F
BRAINERD       CLOUDY    60  55  83 S5        30.09F
STAPLES        PTCLDY    57  55  94 S5        30.07F
LONG PRAIRIE   CLOUDY    59  55  88 SE5       30.08S
LITTLE FALLS   CLEAR     57  54  88 CALM      30.08F
LITCHFIELD     PTCLDY    63  61  94 E3        30.08S
BUFFALO        CLEAR     60  56  84 E5        30.09S
MAPLE LAKE     CLEAR     63  59  87 SE3       30.09F
$$
MNZ037-044-045-052-053-281100-
   East Central Minnesota

CITY           SKY/WX    TMP DP  RH WIND       PRES   REMARKS
PRINCETON      CLEAR     61  55  82 SE2       30.09F
MORA           MOCLDY    57  54  88 CALM      30.11F
CAMBRIDGE      CLEAR     64  52  63 SE3       30.08S
RUSH CITY      MOCLDY    59  56  89 CALM      30.10F
MOOSE LAKE     MOCLDY    46  46 100 CALM      30.10F
HINCKLEY       PTSUNNY   55  54  94 CALM      30.11F
CLOQUET        FOG       52  48  87 CALM      30.12F VSB 1/4
MCGREGOR       MOCLDY    50  48  93 CALM      30.11F
$$
MNZ071>073-080-081-089-090-097-098-281100-
   Southwest Minnesota

CITY           SKY/WX    TMP DP  RH WIND       PRES   REMARKS
MONTEVIDEO     CLOUDY    63  61  94 S5        30.04F
GRANITE FALLS  CLOUDY    63  60  90 E5        30.05F
CANBY          CLOUDY    64  61  91 E3        30.02F
MARSHALL       CLOUDY    64  57  77 SE9       30.02F
REDWOOD FALLS  MOCLDY    63  59  87 SE9       30.04F
OLIVIA         PTCLDY    61  55  82 SE7       30.04F
PIPESTONE      DRIZZLE   64  63  94 SE7       30.02F
WINDOM         MOCLDY    63  61  94 SE6       30.05S
WORTHINGTON    CLOUDY    64  63  94 E6        30.04F
JACKSON        CLOUDY    63  59  88 SE7       30.05F
TRACY          CLOUDY    64  61  89 SE6       30.04S
SLAYTON        CLOUDY    64  62  94 CALM      30.04F
$$
MNZ065>067-074>077-082>085-091>093-281100-
   South Central Minnesota

CITY           SKY/WX    TMP DP  RH WIND       PRES   REMARKS
MANKATO        PTCLDY    63  55  77 SE8       30.07S
NEW ULM        PTCLDY    61  61 100 SE7       30.05F
ST JAMES       MOCLDY    63  59  88 E5        30.06S
FAIRMONT       CLOUDY    61  57  88 SE7       30.05F
GLENCOE        CLEAR     60  56  86 E5        30.07F
FARIBAULT      PTCLDY    61  54  77 CALM      30.09S
OWATONNA       PTCLDY    61  57  88 SE5       30.08F
WASECA         PTCLDY    57  52  82 E6        30.09F
ALBERT LEA     PTCLDY    63  59  88 SE6       30.08F
$$
MNZ078>079-086>088-094>096-281100-
   Southeast Minnesota

CITY           SKY/WX    TMP DP  RH WIND       PRES   REMARKS
ROCHESTER      PTCLDY    57  55  93 E5        30.11S
RED WING       CLEAR     61  55  82 E3        30.09S
STANTON        CLEAR     57  55  93 NE3       30.08F
DODGE CENTER   PTCLDY    57  55  94 E5        30.10S
WINONA         MOCLDY    61  59  94 CALM      30.11S
AUSTIN         PTCLDY    57  57 100 E5        30.08F
PRESTON        PTCLDY    57  57 100 CALM      30.11S
$$
ABBREVIATIONS USED IN REMARKS
   TC - TEMPERATURES IN CELSIUS
  WCI - WIND CHILL INDEX
   HX - HEAT INDEX
  VSB - VISIBILITY
$$



USA.gov is the U.S. government's official web portal to all federal, state and local government web resources and services.